Back to catalog

STARLINK-35833

AliveCommunicationsVLEO
NORAD 66542·PAYLOAD·🇺🇸 United States

Launched Nov 19, 2025 from Cape Canaveral Space Force Station

Loading…

Next Passes (next 24 hours)

TLE

FreshSource: CelesTrak SupGP

Epoch: Sep 14, 2026, 14:45 UTC

1 66542C 25265AC  26257.61506944  .00039416  00000+0  14274-2 0  2579
2 66542  43.0024 291.4562 0001841 281.3184   9.0592 15.27562559    11

Track STARLINK-35833 in real time with AllMySat

Download on the App Store